owner,sensor,date,latitude,longitude,relative_humidity,qcFlag 
TCOON,ioos:station:TCOON:146:1,2017-06-01T00:30:00Z,28.1324,-97.0345,77.9,1111122 
TCOON,ioos:station:TCOON:146:1,2017-06-01T01:30:00Z,28.1324,-97.0345,91.4,1111122 
TCOON,ioos:station:TCOON:146:1,2017-06-01T02:30:00Z,28.1324,-97.0345,90.5,1111122 
TCOON,ioos:station:TCOON:146:1,2017-06-01T03:30:00Z,28.1324,-97.0345,85.8,1111122 
TCOON,ioos:station:TCOON:146:1,2017-06-01T04:30:00Z,28.1324,-97.0345,85.8,1111122 
TCOON,ioos:station:TCOON:146:1,2017-06-01T05:30:00Z,28.1324,-97.0345,86.8,1111122 
TCOON,ioos:station:TCOON:146:1,2017-06-01T06:30:00Z,28.1324,-97.0345,87.1,1111122 
TCOON,ioos:station:TCOON:146:1,2017-06-01T07:30:00Z,28.1324,-97.0345,89.6,1111122 
TCOON,ioos:station:TCOON:146:1,2017-06-01T08:30:00Z,28.1324,-97.0345,88.5,1111122 
TCOON,ioos:station:TCOON:146:1,2017-06-01T09:30:00Z,28.1324,-97.0345,89.5,1111122 
TCOON,ioos:station:TCOON:146:1,2017-06-01T23:30:00Z,28.1324,-97.0345,92.1,1111122 
TCOON,ioos:station:TCOON:146:1,2017-06-04T15:30:00Z,28.1324,-97.0345,92.7,1111122 
TCOON,ioos:station:TCOON:146:1,2017-06-04T16:30:00Z,28.1324,-97.0345,88.2,1111122 
TCOON,ioos:station:TCOON:146:1,2017-06-04T17:30:00Z,28.1324,-97.0345,73.6,1111122 
TCOON,ioos:station:TCOON:146:1,2017-06-04T18:30:00Z,28.1324,-97.0345,71.1,1111122 
TCOON,ioos:station:TCOON:146:1,2017-06-04T19:30:00Z,28.1324,-97.0345,65.8,1111122 
TCOON,ioos:station:TCOON:146:1,2017-06-04T20:30:00Z,28.1324,-97.0345,67.2,1111122 
TCOON,ioos:station:TCOON:146:1,2017-06-04T21:30:00Z,28.1324,-97.0345,76.2,1111122 
TCOON,ioos:station:TCOON:146:1,2017-06-04T22:30:00Z,28.1324,-97.0345,80.3,1111122 
TCOON,ioos:station:TCOON:146:1,2017-06-04T23:30:00Z,28.1324,-97.0345,79.3,1111122 
TCOON,ioos:station:TCOON:146:1,2017-06-05T00:30:00Z,28.1324,-97.0345,86.7,1111122 
TCOON,ioos:station:TCOON:146:1,2017-06-05T01:30:00Z,28.1324,-97.0345,89.0,1111122 
TCOON,ioos:station:TCOON:146:1,2017-06-05T03:30:00Z,28.1324,-97.0345,88.8,1111122 
TCOON,ioos:station:TCOON:146:1,2017-06-05T04:30:00Z,28.1324,-97.0345,91.9,1111122 
TCOON,ioos:station:TCOON:146:1,2017-06-05T05:30:00Z,28.1324,-97.0345,95.3,1111122 
TCOON,ioos:station:TCOON:146:1,2017-06-05T06:30:00Z,28.1324,-97.0345,80.7,1111122 
TCOON,ioos:station:TCOON:146:1,2017-06-05T07:30:00Z,28.1324,-97.0345,86.5,1111122 
TCOON,ioos:station:TCOON:146:1,2017-06-05T08:30:00Z,28.1324,-97.0345,87.0,1111122 
TCOON,ioos:station:TCOON:146:1,2017-06-05T09:30:00Z,28.1324,-97.0345,96.3,1111122 
TCOON,ioos:station:TCOON:146:1,2017-06-05T11:30:00Z,28.1324,-97.0345,95.8,1111122 
TCOON,ioos:station:TCOON:146:1,2017-06-05T12:30:00Z,28.1324,-97.0345,91.6,1111122 
TCOON,ioos:station:TCOON:146:1,2017-06-05T13:30:00Z,28.1324,-97.0345,90.4,1111122 
TCOON,ioos:station:TCOON:146:1,2017-06-05T14:30:00Z,28.1324,-97.0345,95.4,1111122 
TCOON,ioos:station:TCOON:146:1,2017-06-05T15:30:00Z,28.1324,-97.0345,83.9,1111122 
TCOON,ioos:station:TCOON:146:1,2017-06-05T16:30:00Z,28.1324,-97.0345,86.6,1111122 
TCOON,ioos:station:TCOON:146:1,2017-06-05T17:30:00Z,28.1324,-97.0345,81.7,1111122 
TCOON,ioos:station:TCOON:146:1,2017-06-05T18:30:00Z,28.1324,-97.0345,66.3,1111122 
TCOON,ioos:station:TCOON:146:1,2017-06-05T19:30:00Z,28.1324,-97.0345,94.6,1111122 
TCOON,ioos:station:TCOON:146:1,2017-06-05T20:30:00Z,28.1324,-97.0345,90.5,1111122 
TCOON,ioos:station:TCOON:146:1,2017-06-05T21:30:00Z,28.1324,-97.0345,80.0,1111122 
TCOON,ioos:station:TCOON:146:1,2017-06-05T22:30:00Z,28.1324,-97.0345,81.3,1111122 
TCOON,ioos:station:TCOON:146:1,2017-06-05T23:30:00Z,28.1324,-97.0345,83.1,1111122 
TCOON,ioos:station:TCOON:146:1,2017-06-06T01:30:00Z,28.1324,-97.0345,85.1,1111122 
TCOON,ioos:station:TCOON:146:1,2017-06-06T02:30:00Z,28.1324,-97.0345,84.9,1111122 
TCOON,ioos:station:TCOON:146:1,2017-06-06T03:30:00Z,28.1324,-97.0345,91.9,1111122 
TCOON,ioos:station:TCOON:146:1,2017-06-06T04:30:00Z,28.1324,-97.0345,96.3,1111122 
TCOON,ioos:station:TCOON:146:1,2017-06-06T05:30:00Z,28.1324,-97.0345,98.2,1111122 
TCOON,ioos:station:TCOON:146:1,2017-06-06T06:30:00Z,28.1324,-97.0345,96.8,1111122 
TCOON,ioos:station:TCOON:146:1,2017-06-06T07:30:00Z,28.1324,-97.0345,95.3,1111122 
TCOON,ioos:station:TCOON:146:1,2017-06-06T08:30:00Z,28.1324,-97.0345,95.7,1111122 
TCOON,ioos:station:TCOON:146:1,2017-06-06T09:30:00Z,28.1324,-97.0345,96.0,1111122 
TCOON,ioos:station:TCOON:146:1,2017-06-06T15:30:00Z,28.1324,-97.0345,89.8,1111122 
TCOON,ioos:station:TCOON:146:1,2017-06-06T16:30:00Z,28.1324,-97.0345,85.0,1111122 
TCOON,ioos:station:TCOON:146:1,2017-06-06T17:30:00Z,28.1324,-97.0345,80.1,1111122 
TCOON,ioos:station:TCOON:146:1,2017-06-06T18:30:00Z,28.1324,-97.0345,69.9,1111122 
TCOON,ioos:station:TCOON:146:1,2017-06-06T19:30:00Z,28.1324,-97.0345,80.9,1111122 
TCOON,ioos:station:TCOON:146:1,2017-06-06T20:30:00Z,28.1324,-97.0345,84.6,1111122 
TCOON,ioos:station:TCOON:146:1,2017-06-06T21:30:00Z,28.1324,-97.0345,73.0,1111122 
TCOON,ioos:station:TCOON:146:1,2017-06-06T22:30:00Z,28.1324,-97.0345,68.8,1111122 
TCOON,ioos:station:TCOON:146:1,2017-06-06T23:30:00Z,28.1324,-97.0345,61.6,1111122 
TCOON,ioos:station:TCOON:146:1,2017-06-07T00:30:00Z,28.1324,-97.0345,66.9,1111122 
TCOON,ioos:station:TCOON:146:1,2017-06-07T01:30:00Z,28.1324,-97.0345,69.5,1111122 
TCOON,ioos:station:TCOON:146:1,2017-06-07T02:30:00Z,28.1324,-97.0345,71.8,1111122 
TCOON,ioos:station:TCOON:146:1,2017-06-07T03:30:00Z,28.1324,-97.0345,71.6,1111122 
TCOON,ioos:station:TCOON:146:1,2017-06-07T04:30:00Z,28.1324,-97.0345,72.5,1111122 
TCOON,ioos:station:TCOON:146:1,2017-06-07T05:30:00Z,28.1324,-97.0345,74.9,1111122 
TCOON,ioos:station:TCOON:146:1,2017-06-07T06:30:00Z,28.1324,-97.0345,79.8,1111122 
TCOON,ioos:station:TCOON:146:1,2017-06-07T07:30:00Z,28.1324,-97.0345,79.4,1111122 
TCOON,ioos:station:TCOON:146:1,2017-06-07T08:30:00Z,28.1324,-97.0345,80.9,1111122 
TCOON,ioos:station:TCOON:146:1,2017-06-07T09:30:00Z,28.1324,-97.0345,88.7,1111122 
TCOON,ioos:station:TCOON:146:1,2017-06-07T10:30:00Z,28.1324,-97.0345,91.1,1111122 
TCOON,ioos:station:TCOON:146:1,2017-06-07T14:30:00Z,28.1324,-97.0345,75.6,1111122 
TCOON,ioos:station:TCOON:146:1,2017-06-07T15:30:00Z,28.1324,-97.0345,75.9,1111122 
TCOON,ioos:station:TCOON:146:1,2017-06-07T16:30:00Z,28.1324,-97.0345,85.4,1111122 
TCOON,ioos:station:TCOON:146:1,2017-06-07T17:30:00Z,28.1324,-97.0345,65.4,1111122 
TCOON,ioos:station:TCOON:146:1,2017-06-07T18:30:00Z,28.1324,-97.0345,60.1,1111122 
TCOON,ioos:station:TCOON:146:1,2017-06-07T19:30:00Z,28.1324,-97.0345,52.0,1111122 
TCOON,ioos:station:TCOON:146:1,2017-06-07T20:30:00Z,28.1324,-97.0345,50.4,1111122 
TCOON,ioos:station:TCOON:146:1,2017-06-07T21:30:00Z,28.1324,-97.0345,49.8,1111122 
TCOON,ioos:station:TCOON:146:1,2017-06-07T22:30:00Z,28.1324,-97.0345,45.1,1111122 
TCOON,ioos:station:TCOON:146:1,2017-06-07T23:30:00Z,28.1324,-97.0345,46.7,1111122 
TCOON,ioos:station:TCOON:146:1,2017-06-08T00:30:00Z,28.1324,-97.0345,48.5,1111122 
TCOON,ioos:station:TCOON:146:1,2017-06-08T01:30:00Z,28.1324,-97.0345,67.2,1111122 
TCOON,ioos:station:TCOON:146:1,2017-06-08T02:30:00Z,28.1324,-97.0345,96.2,1111122 
TCOON,ioos:station:TCOON:146:1,2017-06-08T03:30:00Z,28.1324,-97.0345,80.5,1111122 
TCOON,ioos:station:TCOON:146:1,2017-06-08T04:30:00Z,28.1324,-97.0345,93.2,1111122 
TCOON,ioos:station:TCOON:146:1,2017-06-08T05:30:00Z,28.1324,-97.0345,92.4,1111122 
TCOON,ioos:station:TCOON:146:1,2017-06-08T18:30:00Z,28.1324,-97.0345,85.6,1111122 
TCOON,ioos:station:TCOON:146:1,2017-06-08T20:30:00Z,28.1324,-97.0345,99.4,1111122 
TCOON,ioos:station:TCOON:146:1,2017-06-08T21:30:00Z,28.1324,-97.0345,80.8,1111122 
TCOON,ioos:station:TCOON:146:1,2017-06-08T22:30:00Z,28.1324,-97.0345,75.2,1111122 
TCOON,ioos:station:TCOON:146:1,2017-06-08T23:30:00Z,28.1324,-97.0345,70.8,1111122 
TCOON,ioos:station:TCOON:146:1,2017-06-09T00:30:00Z,28.1324,-97.0345,74.3,1111122 
TCOON,ioos:station:TCOON:146:1,2017-06-09T01:30:00Z,28.1324,-97.0345,75.0,1111122 
TCOON,ioos:station:TCOON:146:1,2017-06-09T02:30:00Z,28.1324,-97.0345,81.4,1111122 
TCOON,ioos:station:TCOON:146:1,2017-06-09T03:30:00Z,28.1324,-97.0345,81.2,1111122 
TCOON,ioos:station:TCOON:146:1,2017-06-09T04:30:00Z,28.1324,-97.0345,80.1,1111122 
TCOON,ioos:station:TCOON:146:1,2017-06-09T05:30:00Z,28.1324,-97.0345,79.4,1111122 
TCOON,ioos:station:TCOON:146:1,2017-06-09T06:30:00Z,28.1324,-97.0345,79.8,1111122 
TCOON,ioos:station:TCOON:146:1,2017-06-09T07:30:00Z,28.1324,-97.0345,78.1,1111122 
TCOON,ioos:station:TCOON:146:1,2017-06-09T08:30:00Z,28.1324,-97.0345,73.3,1111122 
TCOON,ioos:station:TCOON:146:1,2017-06-09T09:30:00Z,28.1324,-97.0345,71.8,1111122 
TCOON,ioos:station:TCOON:146:1,2017-06-09T10:30:00Z,28.1324,-97.0345,70.9,1111122 
TCOON,ioos:station:TCOON:146:1,2017-06-09T11:30:00Z,28.1324,-97.0345,71.8,1111122 
TCOON,ioos:station:TCOON:146:1,2017-06-09T12:30:00Z,28.1324,-97.0345,72.3,1111122 
TCOON,ioos:station:TCOON:146:1,2017-06-09T13:30:00Z,28.1324,-97.0345,73.9,1111122 
TCOON,ioos:station:TCOON:146:1,2017-06-09T14:30:00Z,28.1324,-97.0345,73.0,1111122 
TCOON,ioos:station:TCOON:146:1,2017-06-09T16:30:00Z,28.1324,-97.0345,73.0,1111122 
TCOON,ioos:station:TCOON:146:1,2017-06-09T17:30:00Z,28.1324,-97.0345,74.0,1111122 
TCOON,ioos:station:TCOON:146:1,2017-06-09T18:30:00Z,28.1324,-97.0345,72.5,1111122 
TCOON,ioos:station:TCOON:146:1,2017-06-09T19:30:00Z,28.1324,-97.0345,72.7,1111122 
TCOON,ioos:station:TCOON:146:1,2017-06-09T20:30:00Z,28.1324,-97.0345,72.4,1111122 
TCOON,ioos:station:TCOON:146:1,2017-06-09T21:30:00Z,28.1324,-97.0345,72.2,1111122 
TCOON,ioos:station:TCOON:146:1,2017-06-09T22:30:00Z,28.1324,-97.0345,71.1,1111122 
TCOON,ioos:station:TCOON:146:1,2017-06-09T23:30:00Z,28.1324,-97.0345,71.0,1111122 
TCOON,ioos:station:TCOON:146:1,2017-06-10T00:30:00Z,28.1324,-97.0345,71.4,1111122 
TCOON,ioos:station:TCOON:146:1,2017-06-10T01:30:00Z,28.1324,-97.0345,72.9,1111122 
TCOON,ioos:station:TCOON:146:1,2017-06-10T03:30:00Z,28.1324,-97.0345,72.1,1111122 
TCOON,ioos:station:TCOON:146:1,2017-06-10T04:30:00Z,28.1324,-97.0345,71.2,1111122 
TCOON,ioos:station:TCOON:146:1,2017-06-10T05:30:00Z,28.1324,-97.0345,70.6,1111122 
TCOON,ioos:station:TCOON:146:1,2017-06-10T06:30:00Z,28.1324,-97.0345,73.6,1111122 
TCOON,ioos:station:TCOON:146:1,2017-06-10T08:30:00Z,28.1324,-97.0345,77.3,1111122 
TCOON,ioos:station:TCOON:146:1,2017-06-10T09:30:00Z,28.1324,-97.0345,78.7,1111122 
TCOON,ioos:station:TCOON:146:1,2017-06-10T10:30:00Z,28.1324,-97.0345,82.0,1111122 
TCOON,ioos:station:TCOON:146:1,2017-06-10T11:30:00Z,28.1324,-97.0345,72.4,1111122 
TCOON,ioos:station:TCOON:146:1,2017-06-10T12:30:00Z,28.1324,-97.0345,72.6,1111122 
TCOON,ioos:station:TCOON:146:1,2017-06-22T16:30:00Z,28.1324,-97.0345,23.9,1111122 
TCOON,ioos:station:TCOON:146:1,2017-06-22T17:30:00Z,28.1324,-97.0345,23.9,1111122 
TCOON,ioos:station:TCOON:146:1,2017-06-22T18:30:00Z,28.1324,-97.0345,23.9,1111122 
TCOON,ioos:station:TCOON:146:1,2017-06-22T19:30:00Z,28.1324,-97.0345,23.8,1111122 
TCOON,ioos:station:TCOON:146:1,2017-06-22T20:30:00Z,28.1324,-97.0345,23.8,1111122 
TCOON,ioos:station:TCOON:146:1,2017-06-22T21:30:00Z,28.1324,-97.0345,23.8,1111122 
TCOON,ioos:station:TCOON:146:1,2017-06-22T22:30:00Z,28.1324,-97.0345,23.9,1111122 
TCOON,ioos:station:TCOON:146:1,2017-06-22T23:30:00Z,28.1324,-97.0345,24.0,1111122 
TCOON,ioos:station:TCOON:146:1,2017-06-23T00:30:00Z,28.1324,-97.0345,24.1,1111122 
TCOON,ioos:station:TCOON:146:1,2017-06-23T01:30:00Z,28.1324,-97.0345,24.1,1111122 
TCOON,ioos:station:TCOON:146:1,2017-06-23T02:30:00Z,28.1324,-97.0345,24.2,1111122 
TCOON,ioos:station:TCOON:146:1,2017-06-23T03:30:00Z,28.1324,-97.0345,24.3,1111122 
TCOON,ioos:station:TCOON:146:1,2017-06-23T04:30:00Z,28.1324,-97.0345,24.4,1111122 
TCOON,ioos:station:TCOON:146:1,2017-06-23T05:30:00Z,28.1324,-97.0345,24.4,1111122 
TCOON,ioos:station:TCOON:146:1,2017-06-23T06:30:00Z,28.1324,-97.0345,24.2,1111122 
TCOON,ioos:station:TCOON:146:1,2017-06-23T07:30:00Z,28.1324,-97.0345,23.8,1111122 
TCOON,ioos:station:TCOON:146:1,2017-06-23T08:30:00Z,28.1324,-97.0345,22.7,1111122 
TCOON,ioos:station:TCOON:146:1,2017-06-23T09:30:00Z,28.1324,-97.0345,23.9,1111122 
TCOON,ioos:station:TCOON:146:1,2017-06-23T10:30:00Z,28.1324,-97.0345,24.1,1111122 
TCOON,ioos:station:TCOON:146:1,2017-06-23T11:30:00Z,28.1324,-97.0345,24.3,1111122 
TCOON,ioos:station:TCOON:146:1,2017-06-23T12:30:00Z,28.1324,-97.0345,24.4,1111122 
TCOON,ioos:station:TCOON:146:1,2017-06-23T13:30:00Z,28.1324,-97.0345,24.4,1111122 
TCOON,ioos:station:TCOON:146:1,2017-06-23T14:30:00Z,28.1324,-97.0345,24.4,1111122 
TCOON,ioos:station:TCOON:146:1,2017-06-23T15:30:00Z,28.1324,-97.0345,24.4,1111122 
TCOON,ioos:station:TCOON:146:1,2017-06-23T16:30:00Z,28.1324,-97.0345,24.3,1111122 
TCOON,ioos:station:TCOON:146:1,2017-06-23T17:30:00Z,28.1324,-97.0345,24.2,1111122 
TCOON,ioos:station:TCOON:146:1,2017-06-23T18:30:00Z,28.1324,-97.0345,24.1,1111122 
TCOON,ioos:station:TCOON:146:1,2017-06-23T19:30:00Z,28.1324,-97.0345,24.1,1111122 
TCOON,ioos:station:TCOON:146:1,2017-06-23T20:30:00Z,28.1324,-97.0345,23.9,1111122 
TCOON,ioos:station:TCOON:146:1,2017-06-23T21:30:00Z,28.1324,-97.0345,22.9,1111122 
TCOON,ioos:station:TCOON:146:1,2017-06-23T22:30:00Z,28.1324,-97.0345,22.9,1111122 
TCOON,ioos:station:TCOON:146:1,2017-06-23T23:30:00Z,28.1324,-97.0345,22.9,1111122 
TCOON,ioos:station:TCOON:146:1,2017-06-24T00:30:00Z,28.1324,-97.0345,22.8,1111122 
TCOON,ioos:station:TCOON:146:1,2017-06-24T01:30:00Z,28.1324,-97.0345,24.2,1111122 
TCOON,ioos:station:TCOON:146:1,2017-06-24T02:30:00Z,28.1324,-97.0345,24.5,1111122 
TCOON,ioos:station:TCOON:146:1,2017-06-24T03:30:00Z,28.1324,-97.0345,24.3,1111122 
TCOON,ioos:station:TCOON:146:1,2017-06-24T04:30:00Z,28.1324,-97.0345,24.1,1111122 
TCOON,ioos:station:TCOON:146:1,2017-06-24T05:30:00Z,28.1324,-97.0345,23.8,1111122 
TCOON,ioos:station:TCOON:146:1,2017-06-24T06:30:00Z,28.1324,-97.0345,23.6,1111122 
TCOON,ioos:station:TCOON:146:1,2017-06-24T07:30:00Z,28.1324,-97.0345,23.4,1111122 
TCOON,ioos:station:TCOON:146:1,2017-06-24T08:30:00Z,28.1324,-97.0345,23.3,1111122 
TCOON,ioos:station:TCOON:146:1,2017-06-24T09:30:00Z,28.1324,-97.0345,23.2,1111122 
TCOON,ioos:station:TCOON:146:1,2017-06-24T10:30:00Z,28.1324,-97.0345,23.1,1111122 
TCOON,ioos:station:TCOON:146:1,2017-06-24T11:30:00Z,28.1324,-97.0345,23.1,1111122 
TCOON,ioos:station:TCOON:146:1,2017-06-24T12:30:00Z,28.1324,-97.0345,23.0,1111122 
TCOON,ioos:station:TCOON:146:1,2017-06-24T13:30:00Z,28.1324,-97.0345,23.0,1111122 
TCOON,ioos:station:TCOON:146:1,2017-06-24T14:30:00Z,28.1324,-97.0345,23.0,1111122 
TCOON,ioos:station:TCOON:146:1,2017-06-24T15:30:00Z,28.1324,-97.0345,23.0,1111122 
TCOON,ioos:station:TCOON:146:1,2017-06-24T16:30:00Z,28.1324,-97.0345,23.0,1111122 
TCOON,ioos:station:TCOON:146:1,2017-06-24T17:30:00Z,28.1324,-97.0345,22.9,1111122 
TCOON,ioos:station:TCOON:146:1,2017-06-24T18:30:00Z,28.1324,-97.0345,22.9,1111122 
TCOON,ioos:station:TCOON:146:1,2017-06-24T19:30:00Z,28.1324,-97.0345,23.0,1111122 
TCOON,ioos:station:TCOON:146:1,2017-06-24T20:30:00Z,28.1324,-97.0345,23.0,1111122 
TCOON,ioos:station:TCOON:146:1,2017-06-24T21:30:00Z,28.1324,-97.0345,23.1,1111122 
TCOON,ioos:station:TCOON:146:1,2017-06-24T22:30:00Z,28.1324,-97.0345,23.1,1111122 
TCOON,ioos:station:TCOON:146:1,2017-06-24T23:30:00Z,28.1324,-97.0345,23.1,1111122 
TCOON,ioos:station:TCOON:146:1,2017-06-25T00:30:00Z,28.1324,-97.0345,23.1,1111122 
TCOON,ioos:station:TCOON:146:1,2017-06-25T01:30:00Z,28.1324,-97.0345,23.1,1111122 
TCOON,ioos:station:TCOON:146:1,2017-06-25T02:30:00Z,28.1324,-97.0345,23.1,1111122 
TCOON,ioos:station:TCOON:146:1,2017-06-25T03:30:00Z,28.1324,-97.0345,23.1,1111122 
TCOON,ioos:station:TCOON:146:1,2017-06-25T04:30:00Z,28.1324,-97.0345,23.1,1111122 
TCOON,ioos:station:TCOON:146:1,2017-06-25T05:30:00Z,28.1324,-97.0345,23.1,1111122 
TCOON,ioos:station:TCOON:146:1,2017-06-25T06:30:00Z,28.1324,-97.0345,23.0,1111122 
TCOON,ioos:station:TCOON:146:1,2017-06-25T07:30:00Z,28.1324,-97.0345,23.0,1111122 
TCOON,ioos:station:TCOON:146:1,2017-06-25T08:30:00Z,28.1324,-97.0345,23.1,1111122 
TCOON,ioos:station:TCOON:146:1,2017-06-25T09:30:00Z,28.1324,-97.0345,23.0,1111122 
TCOON,ioos:station:TCOON:146:1,2017-06-25T10:30:00Z,28.1324,-97.0345,23.0,1111122 
TCOON,ioos:station:TCOON:146:1,2017-06-25T11:30:00Z,28.1324,-97.0345,23.0,1111122 
TCOON,ioos:station:TCOON:146:1,2017-06-25T12:30:00Z,28.1324,-97.0345,23.0,1111122 
TCOON,ioos:station:TCOON:146:1,2017-06-25T13:30:00Z,28.1324,-97.0345,23.0,1111122 
TCOON,ioos:station:TCOON:146:1,2017-06-25T14:30:00Z,28.1324,-97.0345,22.9,1111122 
TCOON,ioos:station:TCOON:146:1,2017-06-25T15:30:00Z,28.1324,-97.0345,23.4,1111122 
TCOON,ioos:station:TCOON:146:1,2017-06-25T16:30:00Z,28.1324,-97.0345,23.8,1111122 
TCOON,ioos:station:TCOON:146:1,2017-06-25T17:30:00Z,28.1324,-97.0345,24.2,1111122 
TCOON,ioos:station:TCOON:146:1,2017-06-25T18:30:00Z,28.1324,-97.0345,24.1,1111122 
TCOON,ioos:station:TCOON:146:1,2017-06-25T19:30:00Z,28.1324,-97.0345,24.3,1111122 
TCOON,ioos:station:TCOON:146:1,2017-06-25T20:30:00Z,28.1324,-97.0345,25.0,1111122 
TCOON,ioos:station:TCOON:146:1,2017-06-25T21:30:00Z,28.1324,-97.0345,25.4,1111122 
TCOON,ioos:station:TCOON:146:1,2017-06-25T22:30:00Z,28.1324,-97.0345,25.3,1111122 
TCOON,ioos:station:TCOON:146:1,2017-06-25T23:30:00Z,28.1324,-97.0345,23.6,1111122 
TCOON,ioos:station:TCOON:146:1,2017-06-26T00:30:00Z,28.1324,-97.0345,23.5,1111122 
TCOON,ioos:station:TCOON:146:1,2017-06-26T01:30:00Z,28.1324,-97.0345,23.5,1111122 
TCOON,ioos:station:TCOON:146:1,2017-06-26T02:30:00Z,28.1324,-97.0345,23.4,1111122 
TCOON,ioos:station:TCOON:146:1,2017-06-26T03:30:00Z,28.1324,-97.0345,23.2,1111122 
TCOON,ioos:station:TCOON:146:1,2017-06-26T04:30:00Z,28.1324,-97.0345,24.7,1111122 
TCOON,ioos:station:TCOON:146:1,2017-06-26T05:30:00Z,28.1324,-97.0345,24.8,1111122 
TCOON,ioos:station:TCOON:146:1,2017-06-26T06:30:00Z,28.1324,-97.0345,24.7,1111122 
TCOON,ioos:station:TCOON:146:1,2017-06-26T07:30:00Z,28.1324,-97.0345,24.6,1111122 
TCOON,ioos:station:TCOON:146:1,2017-06-26T08:30:00Z,28.1324,-97.0345,24.5,1111122 
TCOON,ioos:station:TCOON:146:1,2017-06-26T09:30:00Z,28.1324,-97.0345,24.4,1111122 
TCOON,ioos:station:TCOON:146:1,2017-06-26T10:30:00Z,28.1324,-97.0345,24.4,1111122 
TCOON,ioos:station:TCOON:146:1,2017-06-26T11:30:00Z,28.1324,-97.0345,24.3,1111122 
TCOON,ioos:station:TCOON:146:1,2017-06-26T12:30:00Z,28.1324,-97.0345,24.2,1111122 
TCOON,ioos:station:TCOON:146:1,2017-06-26T13:30:00Z,28.1324,-97.0345,24.3,1111122 
TCOON,ioos:station:TCOON:146:1,2017-06-26T14:30:00Z,28.1324,-97.0345,24.4,1111122 
TCOON,ioos:station:TCOON:146:1,2017-06-26T15:30:00Z,28.1324,-97.0345,24.5,1111122 
TCOON,ioos:station:TCOON:146:1,2017-06-26T16:30:00Z,28.1324,-97.0345,24.5,1111122 
TCOON,ioos:station:TCOON:146:1,2017-06-26T17:30:00Z,28.1324,-97.0345,24.5,1111122 
TCOON,ioos:station:TCOON:146:1,2017-06-26T18:30:00Z,28.1324,-97.0345,24.4,1111122 
TCOON,ioos:station:TCOON:146:1,2017-06-26T19:30:00Z,28.1324,-97.0345,24.4,1111122 
TCOON,ioos:station:TCOON:146:1,2017-06-26T20:30:00Z,28.1324,-97.0345,24.4,1111122 
TCOON,ioos:station:TCOON:146:1,2017-06-26T21:30:00Z,28.1324,-97.0345,24.4,1111122 
TCOON,ioos:station:TCOON:146:1,2017-06-27T01:30:00Z,28.1324,-97.0345,24.4,1111122 
TCOON,ioos:station:TCOON:146:1,2017-06-27T02:30:00Z,28.1324,-97.0345,24.4,1111122 
TCOON,ioos:station:TCOON:146:1,2017-06-27T03:30:00Z,28.1324,-97.0345,24.4,1111122 
TCOON,ioos:station:TCOON:146:1,2017-06-27T04:30:00Z,28.1324,-97.0345,24.3,1111122 
TCOON,ioos:station:TCOON:146:1,2017-06-27T06:30:00Z,28.1324,-97.0345,24.3,1111122 
TCOON,ioos:station:TCOON:146:1,2017-06-27T07:30:00Z,28.1324,-97.0345,24.3,1111122 
TCOON,ioos:station:TCOON:146:1,2017-06-27T08:30:00Z,28.1324,-97.0345,24.3,1111122 
TCOON,ioos:station:TCOON:146:1,2017-06-27T09:30:00Z,28.1324,-97.0345,24.3,1111122 
TCOON,ioos:station:TCOON:146:1,2017-06-27T10:30:00Z,28.1324,-97.0345,24.3,1111122 
TCOON,ioos:station:TCOON:146:1,2017-06-27T11:30:00Z,28.1324,-97.0345,24.0,1111122 
TCOON,ioos:station:TCOON:146:1,2017-06-27T12:30:00Z,28.1324,-97.0345,23.1,1111122 
TCOON,ioos:station:TCOON:146:1,2017-06-27T13:30:00Z,28.1324,-97.0345,22.3,1111122 
TCOON,ioos:station:TCOON:146:1,2017-06-27T14:30:00Z,28.1324,-97.0345,22.4,1111122 
TCOON,ioos:station:TCOON:146:1,2017-06-28T06:30:00Z,28.1324,-97.0345,23.3,1111122 
TCOON,ioos:station:TCOON:146:1,2017-06-28T07:30:00Z,28.1324,-97.0345,23.3,1111122 
TCOON,ioos:station:TCOON:146:1,2017-06-28T08:30:00Z,28.1324,-97.0345,23.4,1111122 
TCOON,ioos:station:TCOON:146:1,2017-06-28T09:30:00Z,28.1324,-97.0345,23.5,1111122 
TCOON,ioos:station:TCOON:146:1,2017-06-28T10:30:00Z,28.1324,-97.0345,23.6,1111122 
TCOON,ioos:station:TCOON:146:1,2017-06-28T11:30:00Z,28.1324,-97.0345,23.8,1111122 
TCOON,ioos:station:TCOON:146:1,2017-06-28T12:30:00Z,28.1324,-97.0345,23.9,1111122 
TCOON,ioos:station:TCOON:146:1,2017-06-28T13:30:00Z,28.1324,-97.0345,24.0,1111122 
TCOON,ioos:station:TCOON:146:1,2017-06-28T14:30:00Z,28.1324,-97.0345,24.1,1111122 
TCOON,ioos:station:TCOON:146:1,2017-06-28T15:30:00Z,28.1324,-97.0345,24.1,1111122 
TCOON,ioos:station:TCOON:146:1,2017-06-28T16:30:00Z,28.1324,-97.0345,24.1,1111122 
TCOON,ioos:station:TCOON:146:1,2017-06-28T17:30:00Z,28.1324,-97.0345,24.6,1111122 
TCOON,ioos:station:TCOON:146:1,2017-06-28T18:30:00Z,28.1324,-97.0345,24.3,1111122 
TCOON,ioos:station:TCOON:146:1,2017-06-28T19:30:00Z,28.1324,-97.0345,24.1,1111122 
TCOON,ioos:station:TCOON:146:1,2017-06-28T20:30:00Z,28.1324,-97.0345,24.3,1111122 
TCOON,ioos:station:TCOON:146:1,2017-06-28T21:30:00Z,28.1324,-97.0345,24.1,1111122 
TCOON,ioos:station:TCOON:146:1,2017-06-28T22:30:00Z,28.1324,-97.0345,24.1,1111122 
TCOON,ioos:station:TCOON:146:1,2017-06-28T23:30:00Z,28.1324,-97.0345,24.0,1111122 
TCOON,ioos:station:TCOON:146:1,2017-06-29T00:30:00Z,28.1324,-97.0345,24.0,1111122 
TCOON,ioos:station:TCOON:146:1,2017-06-29T01:30:00Z,28.1324,-97.0345,24.0,1111122 
TCOON,ioos:station:TCOON:146:1,2017-06-29T03:30:00Z,28.1324,-97.0345,24.0,1111122 
TCOON,ioos:station:TCOON:146:1,2017-06-29T04:30:00Z,28.1324,-97.0345,23.9,1111122 
TCOON,ioos:station:TCOON:146:1,2017-06-29T05:30:00Z,28.1324,-97.0345,24.1,1111122 
TCOON,ioos:station:TCOON:146:1,2017-06-29T06:30:00Z,28.1324,-97.0345,24.2,1111122 
TCOON,ioos:station:TCOON:146:1,2017-06-29T07:30:00Z,28.1324,-97.0345,24.3,1111122 
TCOON,ioos:station:TCOON:146:1,2017-06-29T08:30:00Z,28.1324,-97.0345,24.1,1111122 
TCOON,ioos:station:TCOON:146:1,2017-06-29T09:30:00Z,28.1324,-97.0345,24.2,1111122 
TCOON,ioos:station:TCOON:146:1,2017-06-29T10:30:00Z,28.1324,-97.0345,24.3,1111122 
TCOON,ioos:station:TCOON:146:1,2017-06-29T11:30:00Z,28.1324,-97.0345,24.4,1111122 
TCOON,ioos:station:TCOON:146:1,2017-06-29T12:30:00Z,28.1324,-97.0345,24.4,1111122 
TCOON,ioos:station:TCOON:146:1,2017-06-29T13:30:00Z,28.1324,-97.0345,24.3,1111122 
TCOON,ioos:station:TCOON:146:1,2017-06-29T14:30:00Z,28.1324,-97.0345,24.1,1111122 
TCOON,ioos:station:TCOON:146:1,2017-06-29T16:30:00Z,28.1324,-97.0345,70.5,1111122 
TCOON,ioos:station:TCOON:146:1,2017-06-29T17:30:00Z,28.1324,-97.0345,77.3,1111122 
TCOON,ioos:station:TCOON:146:1,2017-06-29T18:30:00Z,28.1324,-97.0345,78.0,1111122 
TCOON,ioos:station:TCOON:146:1,2017-06-29T19:30:00Z,28.1324,-97.0345,81.7,1111122 
TCOON,ioos:station:TCOON:146:1,2017-06-29T20:30:00Z,28.1324,-97.0345,81.0,1111122 
TCOON,ioos:station:TCOON:146:1,2017-06-29T21:30:00Z,28.1324,-97.0345,79.9,1111122 
TCOON,ioos:station:TCOON:146:1,2017-06-29T22:30:00Z,28.1324,-97.0345,81.1,1111122 
TCOON,ioos:station:TCOON:146:1,2017-06-29T23:30:00Z,28.1324,-97.0345,81.3,1111122 
TCOON,ioos:station:TCOON:146:1,2017-06-30T00:30:00Z,28.1324,-97.0345,80.2,1111122 
TCOON,ioos:station:TCOON:146:1,2017-06-30T01:30:00Z,28.1324,-97.0345,82.7,1111122 
TCOON,ioos:station:TCOON:146:1,2017-06-30T02:30:00Z,28.1324,-97.0345,82.9,1111122 
TCOON,ioos:station:TCOON:146:1,2017-06-30T03:30:00Z,28.1324,-97.0345,80.2,1111122 
TCOON,ioos:station:TCOON:146:1,2017-06-30T04:30:00Z,28.1324,-97.0345,81.2,1111122 
TCOON,ioos:station:TCOON:146:1,2017-06-30T05:30:00Z,28.1324,-97.0345,83.2,1111122 
TCOON,ioos:station:TCOON:146:1,2017-06-30T06:30:00Z,28.1324,-97.0345,81.8,1111122 